D9442 EDAH-ZZZZ

Flight info

Callsign D9442
Flight time N/A
Altitude
Route
Aircraft

Departure

Time 2026-04-15 11:50
Airport Heringsdorf Airport (EDAH)

Arrival

Time N/A
Airport ZZZZ
Time Latitude Longitude Altitude Speed Heading
2026-04-15 11:46 53.87740 14.16371 84 ft 0 kts 285°
2026-04-15 11:50 53.87742 14.16360 88 ft 21 kts 285°
2026-04-15 11:50 53.87923 14.15554 1011 ft 96 kts 287°
2026-04-15 11:51 53.88086 14.14513 1680 ft 70 kts 283°
2026-04-15 11:51 53.88256 14.13799 1723 ft 69 kts 311°
2026-04-15 11:51 53.88735 14.13572 1713 ft 77 kts 14°
2026-04-15 11:51 53.89080 14.14265 1730 ft 82 kts 77°
2026-04-15 11:52 53.89182 14.15231 1729 ft 87 kts 88°
2026-04-15 11:52 53.89097 14.16252 1709 ft 85 kts 85°
2026-04-15 11:52 53.89379 14.17160 1665 ft 88 kts 39°
2026-04-15 11:52 53.89911 14.17448 1595 ft 84 kts 345°
2026-04-15 11:53 53.90318 14.16780 1493 ft 84 kts 285°
2026-04-15 11:53 53.90202 14.15910 1484 ft 78 kts 232°
2026-04-15 11:53 53.89787 14.15259 1419 ft 81 kts 225°
2026-04-15 11:53 53.89389 14.14627 1443 ft 76 kts 231°
2026-04-15 11:54 53.89342 14.13797 1453 ft 77 kts 301°
2026-04-15 11:54 53.89863 14.13722 1305 ft 95 kts 44°
2026-04-15 11:54 53.89909 14.14710 1316 ft 90 kts 125°
2026-04-15 11:54 53.89430 14.15309 1309 ft 85 kts 153°
2026-04-15 11:55 53.88981 14.15955 1270 ft 85 kts 133°
2026-04-15 11:55 53.88568 14.16656 1275 ft 84 kts 143°
2026-04-15 11:55 53.88341 14.17499 1284 ft 86 kts 69°
2026-04-15 11:55 53.88808 14.17957 1247 ft 84 kts 350°
2026-04-15 11:56 53.89219 14.17420 1211 ft 79 kts 291°
2026-04-15 11:56 53.89399 14.16563 1193 ft 75 kts 304°
2026-04-15 11:56 53.89722 14.15860 1189 ft 74 kts 306°
2026-04-15 11:56 53.90057 14.15185 1168 ft 75 kts 310°
2026-04-15 11:57 53.90515 14.14792 1149 ft 79 kts 359°
2026-04-15 11:57 53.91605 14.15224 1117 ft 83 kts 38°
2026-04-15 11:57 53.91746 14.16121 1135 ft 81 kts 116°
2026-04-15 11:58 53.91291 14.16636 1110 ft 81 kts 151°
2026-04-15 11:58 53.90792 14.16995 1144 ft 79 kts 170°
2026-04-15 11:58 53.90308 14.16669 1190 ft 75 kts 228°
2026-04-15 11:58 53.89997 14.15982 1200 ft 78 kts 236°
2026-04-15 11:59 53.89722 14.15149 1270 ft 83 kts 262°
2026-04-15 11:59 53.89972 14.14325 1431 ft 80 kts 323°
2026-04-15 11:59 53.90422 14.13833 1551 ft 76 kts 323°
2026-04-15 11:59 53.90697 14.13068 1685 ft 80 kts 283°
2026-04-15 12:00 53.90743 14.12203 1646 ft 80 kts 244°
2026-04-15 12:00 53.90239 14.11874 1639 ft 88 kts 166°
2026-04-15 12:00 53.89909 14.12695 1637 ft 91 kts 87°
2026-04-15 12:00 53.90284 14.13447 1604 ft 88 kts
2026-04-15 12:01 53.90763 14.13017 1579 ft 84 kts 288°
2026-04-15 12:01 53.90707 14.12066 1583 ft 77 kts 274°
2026-04-15 12:01 53.90969 14.11296 1603 ft 77 kts 309°
2026-04-15 12:01 53.91207 14.10848 1632 ft 76 kts 309°
2026-04-15 12:02 53.91544 14.10131 1596 ft 79 kts 306°
2026-04-15 12:02 53.91865 14.09393 1562 ft 76 kts 301°
2026-04-15 12:02 53.92060 14.08597 1544 ft 74 kts 278°
2026-04-15 12:02 53.92119 14.07708 1543 ft 74 kts 262°
2026-04-15 12:03 53.91782 14.07021 1481 ft 80 kts 219°
2026-04-15 12:03 53.91371 14.06433 1481 ft 77 kts 223°
2026-04-15 12:03 53.90967 14.05846 1409 ft 79 kts 224°
2026-04-15 12:03 53.90674 14.05135 1389 ft 75 kts 265°
2026-04-15 12:04 53.90914 14.04374 1376 ft 80 kts 325°
2026-04-15 12:04 53.91451 14.04412 1375 ft 84 kts 35°
2026-04-15 12:04 53.91627 14.05351 1364 ft 89 kts 103°
2026-04-15 12:04 53.91366 14.06272 1368 ft 83 kts 122°
2026-04-15 12:05 53.91031 14.07051 1326 ft 82 kts 132°
2026-04-15 12:05 53.90663 14.07793 1276 ft 82 kts 133°
2026-04-15 12:05 53.90437 14.08673 1210 ft 84 kts 106°
2026-04-15 12:05 53.90280 14.09614 1147 ft 82 kts 108°
2026-04-15 12:06 53.90109 14.10534 1135 ft 82 kts 108°
2026-04-15 12:06 53.89919 14.11444 1077 ft 81 kts 112°
2026-04-15 12:06 53.89726 14.12313 1074 ft 77 kts 112°
2026-04-15 12:06 53.89522 14.13174 1030 ft 79 kts 114°
2026-04-15 12:07 53.89297 14.14032 1000 ft 80 kts 114°
2026-04-15 12:07 53.89121 14.14916 1032 ft 79 kts 109°
2026-04-15 12:07 53.88942 14.15809 1005 ft 83 kts 108°
2026-04-15 12:07 53.88771 14.16726 1005 ft 81 kts 107°
2026-04-15 12:08 53.88622 14.17615 998 ft 78 kts 106°
2026-04-15 12:08 53.88461 14.18528 900 ft 81 kts 111°
2026-04-15 12:08 53.88069 14.19054 800 ft 81 kts 186°
2026-04-15 12:08 53.87578 14.18650 776 ft 80 kts 230°
2026-04-15 12:09 53.87554 14.17672 591 ft 94 kts 283°
2026-04-15 12:09 53.87704 14.16671 176 ft 77 kts 278°
2026-04-15 12:09 53.87824 14.15910 85 ft 50 kts 276°
2026-04-15 12:09 53.87861 14.15525 89 ft 19 kts 280°
2026-04-15 12:10 53.87880 14.15406 90 ft 3 kts 316°
2026-04-15 12:10 53.87882 14.15404 90 ft 0 kts 318°
2026-04-15 12:11 53.87691 14.16702 89 ft 0 kts 283°
2026-04-15 12:12 53.87709 14.16517 85 ft 0 kts 286°
2026-04-15 12:14 53.87793 14.16089 362 ft 81 kts 285°
2026-04-15 12:14 53.87944 14.15016 1391 ft 98 kts 282°
2026-04-15 12:14 53.88055 14.14136 1646 ft 70 kts 277°
2026-04-15 12:14 53.88069 14.13311 1640 ft 73 kts 250°
2026-04-15 12:15 53.87717 14.12615 1616 ft 77 kts 232°
2026-04-15 12:15 53.87640 14.11742 1592 ft 78 kts 275°
2026-04-15 12:15 53.87697 14.10841 1594 ft 75 kts 276°
2026-04-15 12:15 53.87767 14.09971 1603 ft 73 kts 278°
2026-04-15 12:16 53.87858 14.09121 1639 ft 73 kts 278°
2026-04-15 12:16 53.87943 14.08259 1636 ft 74 kts 281°
2026-04-15 12:16 53.88048 14.07401 1618 ft 76 kts 289°
2026-04-15 12:16 53.88406 14.06769 1549 ft 77 kts 329°
2026-04-15 12:17 53.88800 14.06239 1483 ft 76 kts 293°
2026-04-15 12:17 53.88803 14.05339 1409 ft 76 kts 261°
2026-04-15 12:17 53.88728 14.04455 1383 ft 78 kts 262°
2026-04-15 12:17 53.88607 14.03579 1354 ft 77 kts 237°
2026-04-15 12:18 53.88226 14.02905 1304 ft 79 kts 226°
2026-04-15 12:18 53.87845 14.02239 1312 ft 81 kts 229°
2026-04-15 12:18 53.87463 14.01551 1343 ft 79 kts 231°
2026-04-15 12:18 53.87403 14.00676 1361 ft 80 kts 284°
2026-04-15 12:19 53.87500 13.99785 1379 ft 76 kts 262°
2026-04-15 12:19 53.87133 13.99131 1331 ft 84 kts 194°
2026-04-15 12:19 53.86647 13.99604 1244 ft 94 kts 106°
2026-04-15 12:19 53.86906 14.00444 1266 ft 88 kts 16°
2026-04-15 12:20 53.87485 14.00526 1279 ft 82 kts
2026-04-15 12:20 53.88034 14.00595 1317 ft 80 kts
2026-04-15 12:20 53.88600 14.00697 1329 ft 83 kts
2026-04-15 12:20 53.89156 14.00853 1315 ft 78 kts 11°
2026-04-15 12:21 53.89681 14.01088 1263 ft 79 kts 13°
2026-04-15 12:21 53.90220 14.01336 1203 ft 81 kts 12°
2026-04-15 12:21 53.90770 14.01585 1140 ft 83 kts 13°
2026-04-15 12:21 53.91311 14.01866 1196 ft 80 kts 15°
2026-04-15 12:22 53.91845 14.01947 1104 ft 82 kts 327°
2026-04-15 12:22 53.91991 14.01114 1121 ft 81 kts 242°
2026-04-15 12:22 53.91496 14.00843 1129 ft 84 kts 159°
2026-04-15 12:22 53.91225 14.01677 1171 ft 84 kts 85°
2026-04-15 12:23 53.91532 14.02469 1137 ft 82 kts 29°
2026-04-15 12:23 53.92049 14.02857 1150 ft 82 kts 27°
2026-04-15 12:23 53.92557 14.03303 1144 ft 83 kts 24°
2026-04-15 12:23 53.93081 14.03673 1118 ft 83 kts 20°
2026-04-15 12:24 53.93620 14.04015 1159 ft 81 kts 23°
2026-04-15 12:24 53.94060 14.04656 1061 ft 85 kts 45°
2026-04-15 12:24 53.94550 14.05187 1056 ft 84 kts 40°
2026-04-15 12:24 53.94668 14.06103 970 ft 89 kts 114°
2026-04-15 12:25 53.94389 14.07001 968 ft 81 kts 124°
2026-04-15 12:25 53.94076 14.07775 956 ft 79 kts 125°
2026-04-15 12:25 53.93816 14.08601 919 ft 80 kts 116°
2026-04-15 12:25 53.93516 14.09389 903 ft 80 kts 142°
2026-04-15 12:26 53.93027 14.09778 908 ft 76 kts 162°
2026-04-15 12:26 53.92524 14.10157 1047 ft 77 kts 155°
2026-04-15 12:26 53.92021 14.10553 1185 ft 82 kts 156°
2026-04-15 12:26 53.91684 14.11360 1285 ft 91 kts 97°
2026-04-15 12:27 53.91587 14.12400 1460 ft 88 kts 102°
2026-04-15 12:27 53.91486 14.13427 1615 ft 88 kts 98°
2026-04-15 12:27 53.91390 14.14455 1779 ft 88 kts 102°
2026-04-15 12:27 53.91276 14.15470 1969 ft 87 kts 102°
2026-04-15 12:28 53.91131 14.16462 2134 ft 89 kts 108°
2026-04-15 12:28 53.90920 14.17469 2257 ft 91 kts 114°
2026-04-15 12:28 53.90645 14.18428 2427 ft 86 kts 139°
2026-04-15 12:28 53.90144 14.18409 2462 ft 86 kts 247°